Wind_Speed
40 39 45 45 39 36 30 21 26 26 18 22 26 29 34 32 35 34 26 33 32 32 27 26 27 27 24 26 24 21 22 17 18 19 21 24 26 28 29 28 26 25 24 22
33 41 40 38 35 32 31 24 18 15 15 21 27 34 36 36 36 36 35 34 35 35 33 30 28 27 30 28 28 26 22 21 20 20 19 22 23 27 27 28 28 28 27 26
39 29 34 34 35 31 31 30 26 23 24 24 28 40 40 37 38 36 36 35 37 36 33 30 32 31 30 31 31 29 26 24 23 23 24 24 24 26 28 29 29 28 28 29
29 21 22 28 25 26 26 28 23 21 17 14 14 14 41 38 35 37 36 35 36 38 38 37 33 31 31 30 32 33 31 30 28 29 29 28 26 25 23 26 28 30 31 31
23 26 20 21 25 22 21 21 15 15 15 22 28 16 42 38 40 35 32 32 33 36 40 39 35 32 31 30 32 33 34 34 31 30 32 32 31 27 25 26 28 32 33 34
31 21 23 33 22 10 11 19 17 9 11 8 29 21 27 40 40 38 31 30 30 31 32 33 33 33 34 34 36 36 38 38 36 35 33 36 34 31 30 27 26 29 31 33
36 30 24 18 24 25 20 12 3 4 5 8 5 13 30 35 35 33 30 21 20 16 20 20 24 26 31 33 35 35 38 40 41 40 38 38 36 36 34 31 28 28 31 32
26 15 30 24 28 24 23 20 7 5 4 4 6 15 25 31 35 36 36 33 26 25 25 25 23 25 28 32 34 36 36 39 39 40 41 40 39 39 39 37 32 29 30 30
21 16 14 23 21 20 18 27 26 16 17 8 11 34 43 42 40 35 21 18 12 11 12 17 23 26 26 29 32 32 33 31 36 38 40 39 40 40 42 40 37 32 30 30
19 11 13 22 22 24 21 19 14 19 4 5 10 22 33 16 25 22 23 16 17 15 15 18 22 27 30 27 30 34 33 32 32 37 38 39 41 39 39 42 42 38 35 33
28 21 14 19 22 30 28 23 17 13 10 4 2 14 19 10 1 13 2 5 7 16 22 22 22 21 25 27 26 30 28 30 29 29 30 35 38 40 39 41 44 42 41 39
33 21 16 19 18 23 25 28 30 8 5 6 5 27 22 14 18 17 8 6 18 19 16 20 20 21 20 22 24 26 31 28 27 30 33 32 33 35 38 40 42 44 46 45
46 16 14 9 13 16 20 25 27 24 24 25 8 24 3 6 5 5 23 24 21 23 23 24 32 25 22 17 16 18 21 25 24 26 28 30 32 32 33 36 40 43 44 46
36 27 21 20 14 22 30 32 28 27 21 25 37 60 47 41 29 28 30 40 46 39 40 32 20 26 22 14 11 9 11 14 16 18 21 24 27 28 29 30 32 33 37 42
30 31 30 22 17 16 15 21 23 38 48 29 58 47 49 42 44 47 47 43 37 30 29 24 26 25 20 16 11 8 8 8 8 8 7 8 11 14 17 20 24 28 31 34
29 12 20 21 25 29 31 32 32 31 29 39 41 57 47 48 41 45 48 48 48 47 40 31 22 22 21 21 18 16 14 16 14 15 17 19 21 24 26 27 27 24 23 23
30 25 16 13 14 14 23 42 42 42 45 46 48 62 45 40 39 40 41 39 42 44 40 31 26 24 27 25 24 22 21 22 23 25 24 26 28 29 30 29 29 31 33 31
31 25 18 9 13 4 22 22 18 21 28 31 42 47 40 39 43 49 41 45 49 44 34 30 29 27 31 36 35 34 35 28 29 30 31 26 24 27 30 29 29 31 32 34
28 31 14 8 19 25 26 21 25 30 40 38 44 46 46 44 45 54 41 41 36 34 33 39 40 36 36 38 38 40 36 31 30 31 28 26 26 27 30 29 28 28 29 30
25 25 23 14 6 8 16 15 12 9 46 31 31 32 35 37 45 51 35 37 40 43 42 38 31 35 39 42 42 41 35 31 30 28 30 28 28 28 28 27 25 24 24 24
32 31 31 27 15 27 28 19 15 15 42 31 35 42 44 44 44 48 39 38 46 37 41 37 29 32 36 40 40 40 33 31 28 29 31 28 28 28 29 26 23 21 20 19
26 22 23 22 13 20 25 20 19 27 31 36 32 34 41 42 42 41 42 41 41 44 41 32 23 21 24 29 30 30 29 28 30 31 30 29 29 28 27 25 19 18 16 15
19 26 20 24 28 31 22 25 25 27 34 40 41 41 44 44 45 46 46 42 38 37 34 26 25 28 25 26 27 30 31 31 32 31 30 28 27 27 25 22 17 16 16 16
23 24 27 27 34 35 36 38 40 40 44 47 52 56 54 52 50 52 51 45 41 34 29 28 26 27 27 28 29 30 31 32 31 29 28 29 29 25 23 21 20 20 21 22
19 20 27 32 34 34 35 34 38 39 43 44 49 55 58 57 56 55 52 53 45 40 36 38 33 35 33 32 33 30 29 29 28 27 28 29 26 23 21 21 21 22 21 21
26 29 32 37 36 38 37 39 42 42 43 47 49 48 51 54 58 50 52 51 45 48 43 41 35 36 35 30 29 30 31 30 26 27 29 27 24 22 22 21 20 21 21 21
Wind_Direction
212 209 216 220 223 231 237 244 254 258 258 260 258 258 254 252 251 251 242 244 240 242 244 247 256 254 252 250 250 257 259 259 257 255 252 250 247 245 239 238 242 245 247 250
203 214 220 222 224 228 232 237 247 257 262 264 264 261 256 253 252 252 251 248 246 244 244 248 251 256 251 252 251 249 257 264 265 263 261 253 247 246 246 240 239 242 245 247
208 220 215 220 225 226 231 238 249 264 269 268 281 277 261 259 258 257 256 257 252 248 252 248 260 260 256 254 246 248 251 251 258 263 262 256 250 247 246 245 243 244 246 249
200 207 205 215 226 224 235 240 247 253 273 276 280 292 271 266 261 256 257 258 258 259 256 264 266 259 257 257 257 249 243 252 255 255 258 260 260 254 251 250 248 247 248 249
220 212 193 203 223 222 229 243 250 263 262 274 269 265 266 273 272 262 260 262 263 262 262 267 267 263 260 253 253 254 252 248 247 248 250 253 256 256 253 248 247 246 247 250
220 223 220 228 223 206 222 245 251 247 264 259 263 236 273 271 274 279 279 271 267 264 267 271 272 269 268 261 253 252 252 251 246 246 251 254 254 256 254 253 250 249 250 250
211 220 225 217 217 229 240 205 225 216 203 243 329 236 249 268 274 284 286 276 283 277 269 284 276 272 265 260 260 256 253 251 251 249 247 250 254 252 253 252 251 249 249 252
183 198 223 223 223 221 216 211 201 210 204 273 282 250 269 280 282 287 289 290 281 271 269 269 267 269 260 260 260 257 261 256 252 254 256 255 253 251 250 249 250 251 250 250
195 200 203 217 219 210 204 213 230 253 271 286 248 266 273 277 282 282 289 297 297 284 275 265 262 259 265 265 264 262 262 262 255 257 257 255 253 251 248 246 248 247 247 250
201 195 198 205 213 220 210 211 208 214 215 226 256 263 256 258 294 289 271 269 274 282 290 291 284 271 265 271 264 263 260 266 267 252 254 258 251 249 248 244 242 243 246 248
206 205 185 204 206 217 221 224 223 224 207 212 293 259 271 264 2 26 22 132 306 305 309 311 307 303 279 274 274 263 262 256 262 265 257 254 255 254 252 244 242 243 246 247
198 192 180 191 216 227 234 239 220 205 195 219 274 269 278 279 256 268 267 271 321 313 314 339 336 320 297 286 274 267 256 256 256 260 261 259 253 251 253 256 252 248 247 247
202 198 164 191 219 204 213 221 234 247 252 248 237 259 235 84 107 248 239 255 279 294 297 317 318 321 303 284 282 272 260 253 254 256 259 257 257 259 259 255 257 258 254 248
211 211 208 211 227 219 225 231 230 229 232 243 242 267 262 261 268 278 277 282 286 287 291 296 297 302 314 303 286 276 268 262 261 260 260 259 260 261 264 264 262 260 257 254
202 212 217 227 227 231 236 243 239 236 244 236 263 268 272 279 288 293 292 292 291 286 305 306 294 284 293 293 285 293 299 296 281 269 267 272 278 282 280 274 268 264 260 258
192 189 213 230 238 241 242 237 235 241 248 253 264 268 276 282 287 295 292 292 291 291 294 294 291 270 269 279 279 277 287 294 298 302 291 285 285 297 295 284 273 268 264 260
202 214 210 225 225 234 250 241 240 244 248 256 260 265 286 294 296 293 296 304 306 301 288 286 295 281 254 260 263 264 271 287 285 285 294 296 286 287 288 281 275 268 263 262
224 213 201 212 172 227 252 255 244 250 258 264 271 281 296 298 297 289 298 306 305 297 289 277 279 279 266 252 256 261 273 278 276 274 298 298 288 284 280 277 273 269 265 261
219 213 212 199 209 255 254 243 249 268 277 273 277 285 292 297 297 285 302 305 304 294 275 266 270 271 257 247 248 260 269 273 269 274 290 290 288 285 278 275 272 268 266 263
202 212 222 213 203 232 272 268 279 270 274 291 285 287 290 291 290 296 301 290 298 309 295 278 278 264 247 244 247 255 265 264 261 276 286 287 287 285 277 271 266 263 261 259
214 223 226 226 234 260 266 265 251 237 277 284 287 287 291 291 286 292 300 290 290 304 309 277 269 267 248 244 249 254 258 256 259 273 282 274 284 279 272 265 262 260 256 252
218 211 222 226 234 267 265 264 255 279 280 284 287 288 291 292 292 293 297 300 293 285 302 285 258 258 250 244 245 254 257 260 262 274 272 273 277 271 265 264 258 256 255 255
222 226 234 230 246 263 278 286 286 282 284 286 285 283 283 283 286 289 292 301 301 293 289 293 268 262 255 250 250 256 258 258 266 269 271 273 262 257 255 254 250 253 255 259
235 241 241 249 257 264 272 277 281 284 285 286 287 288 287 288 285 282 283 290 293 286 280 283 280 275 264 255 248 256 257 259 261 266 267 258 247 242 245 247 252 258 265 272
248 248 252 258 264 268 271 279 284 283 287 290 288 285 285 288 288 283 282 283 279 275 277 280 274 270 266 257 254 249 250 253 252 257 245 240 238 239 242 247 256 263 264 265
264 265 265 269 274 274 278 283 280 283 285 288 288 288 281 279 285 282 284 285 273 268 269 280 271 263 257 249 245 245 243 240 238 234 228 228 233 237 245 252 257 259 260 263
Height
3115 3120 3120 3124 3130 3133 3138 3141 3142 3146 3148 3146 3146 3145 3145 3150 3149 3150 3152 3154 3155 3157 3162 3163 3164 3165 3164 3165 3166 3169 3170 3171 3171 3171 3170 3171 3173 3176 3177 3180 3183 3184 3185 3186
3113 3111 3117 3124 3128 3131 3134 3137 3140 3142 3143 3141 3140 3136 3136 3139 3141 3144 3147 3149 3150 3150 3153 3156 3158 3159 3159 3160 3161 3162 3165 3167 3167 3167 3167 3167 3168 3169 3173 3174 3175 3177 3179 3180
3103 3107 3112 3119 3123 3126 3128 3132 3136 3141 3139 3139 3134 3125 3129 3133 3134 3138 3140 3142 3144 3144 3146 3149 3151 3152 3154 3153 3154 3155 3158 3159 3160 3161 3162 3162 3162 3162 3165 3167 3170 3172 3173 3174
3097 3101 3105 3114 3118 3123 3126 3129 3134 3138 3138 3137 3134 3123 3119 3122 3125 3130 3134 3136 3138 3139 3140 3143 3144 3144 3145 3148 3149 3149 3149 3150 3153 3154 3155 3157 3158 3158 3161 3162 3165 3166 3167 3167
3095 3100 3104 3111 3116 3121 3124 3128 3132 3135 3134 3132 3129 3133 3107 3113 3114 3122 3127 3130 3132 3133 3134 3134 3136 3137 3138 3139 3140 3142 3143 3143 3144 3145 3147 3149 3150 3154 3154 3155 3157 3159 3160 3160
3095 3100 3105 3109 3115 3118 3121 3126 3129 3131 3131 3127 3120 3125 3105 3109 3108 3111 3118 3122 3124 3125 3127 3127 3129 3130 3130 3131 3131 3133 3134 3135 3136 3137 3139 3140 3144 3147 3147 3149 3151 3152 3153 3153
3089 3096 3100 3105 3110 3114 3116 3123 3127 3128 3127 3118 3115 3116 3099 3105 3105 3108 3111 3116 3119 3118 3119 3121 3121 3121 3120 3121 3122 3123 3124 3126 3128 3129 3130 3131 3134 3137 3139 3142 3143 3144 3145 3146
3083 3091 3092 3097 3102 3106 3111 3119 3123 3123 3122 3115 3114 3105 3091 3099 3101 3103 3104 3106 3109 3112 3113 3113 3113 3112 3111 3112 3112 3113 3115 3118 3120 3121 3122 3123 3125 3126 3129 3132 3134 3136 3138 3139
3078 3085 3087 3092 3097 3104 3108 3112 3119 3119 3117 3116 3108 3096 3091 3093 3095 3096 3097 3099 3102 3104 3104 3103 3103 3102 3102 3103 3105 3105 3106 3107 3110 3112 3113 3113 3114 3115 3117 3122 3124 3127 3128 3130
3074 3081 3084 3088 3094 3100 3102 3107 3113 3115 3113 3113 3097 3093 3080 3088 3093 3092 3090 3091 3096 3096 3097 3097 3096 3094 3094 3094 3095 3097 3098 3100 3099 3101 3103 3104 3104 3105 3107 3109 3112 3116 3119 3120
3068 3074 3080 3084 3086 3090 3097 3101 3106 3107 3106 3102 3100 3081 3078 3084 3087 3085 3085 3086 3090 3091 3091 3089 3089 3087 3086 3086 3086 3088 3089 3090 3092 3093 3094 3095 3097 3098 3099 3098 3101 3105 3108 3110
3061 3068 3076 3080 3082 3087 3091 3094 3099 3097 3099 3099 3096 3070 3076 3079 3083 3085 3085 3083 3085 3084 3084 3083 3082 3080 3078 3077 3077 3077 3079 3081 3083 3084 3085 3086 3087 3088 3090 3092 3093 3095 3096 3098
3054 3064 3072 3077 3080 3081 3083 3087 3092 3095 3094 3092 3098 3064 3071 3073 3076 3078 3080 3080 3080 3080 3079 3078 3078 3075 3073 3071 3070 3069 3071 3073 3075 3076 3077 3078 3079 3080 3081 3081 3083 3085 3086 3087
3055 3058 3059 3063 3067 3073 3077 3080 3085 3088 3087 3083 3076 3046 3065 3069 3073 3076 3077 3078 3076 3075 3074 3073 3073 3071 3070 3067 3066 3066 3066 3067 3068 3069 3069 3070 3071 3072 3072 3073 3073 3074 3076 3078
3050 3052 3056 3061 3065 3067 3072 3075 3077 3076 3072 3078 3052 3059 3060 3067 3069 3069 3067 3068 3066 3066 3065 3065 3066 3066 3066 3066 3065 3065 3065 3065 3065 3065 3066 3067 3067 3067 3066 3066 3066 3067 3068 3069
3044 3047 3052 3057 3061 3065 3066 3068 3068 3068 3070 3065 3064 3046 3064 3062 3063 3061 3059 3059 3058 3058 3057 3057 3057 3058 3060 3061 3061 3061 3061 3062 3062 3062 3062 3062 3062 3062 3062 3062 3061 3061 3062 3062
3039 3042 3048 3055 3060 3062 3059 3051 3056 3059 3059 3058 3055 3028 3058 3055 3053 3047 3047 3051 3050 3048 3050 3049 3051 3051 3052 3053 3054 3055 3055 3056 3056 3056 3056 3055 3055 3054 3054 3053 3052 3053 3054 3055
3037 3042 3049 3053 3056 3057 3043 3046 3049 3050 3052 3051 3041 3039 3047 3045 3041 3034 3044 3041 3039 3040 3039 3041 3041 3042 3043 3043 3044 3045 3046 3046 3047 3048 3048 3046 3045 3045 3045 3043 3043 3043 3044 3044
3035 3040 3044 3047 3047 3041 3038 3039 3042 3044 3039 3042 3036 3036 3038 3037 3030 3020 3038 3036 3027 3026 3024 3024 3027 3028 3028 3030 3033 3034 3036 3037 3039 3039 3039 3038 3036 3035 3036 3035 3033 3033 3034 3035
3032 3036 3041 3041 3042 3038 3027 3032 3034 3036 3017 3032 3031 3027 3024 3026 3019 3016 3026 3025 3020 3017 3013 3011 3012 3012 3014 3017 3020 3023 3026 3028 3030 3030 3029 3029 3028 3027 3026 3026 3025 3025 3025 3025
3025 3028 3031 3033 3034 3021 3019 3026 3029 3032 3014 3023 3024 3018 3016 3016 3015 3008 3015 3013 3013 3008 3004 3001 3000 3001 3003 3005 3009 3013 3015 3018 3019 3020 3020 3019 3019 3019 3019 3019 3018 3018 3017 3017
3017 3021 3023 3028 3029 3015 3011 3016 3020 3019 3014 3011 3015 3012 3008 3007 3005 3005 3005 3004 3003 3000 2997 2992 2991 2993 2993 2996 3000 3003 3006 3008 3011 3011 3011 3010 3011 3011 3012 3012 3011 3011 3012 3013
3013 3013 3014 3016 3011 3007 3006 3009 3010 3010 3009 3006 3005 3007 3003 2999 2996 2995 2992 2992 2992 2992 2990 2987 2985 2987 2987 2989 2992 2994 2996 2999 3000 3001 3002 3003 3003 3003 3004 3005 3005 3006 3006 3007
3004 3006 3005 3008 3003 3002 3002 3001 3001 3001 2999 2998 2995 2992 2993 2989 2987 2984 2983 2983 2984 2984 2983 2982 2980 2980 2980 2981 2983 2985 2988 2990 2991 2992 2994 2995 2995 2996 2997 2998 2999 3000 3001 3001
2998 2999 2997 2996 2996 2997 2995 2995 2992 2991 2989 2987 2984 2980 2977 2977 2975 2971 2971 2971 2973 2974 2973 2973 2971 2970 2971 2972 2973 2975 2978 2980 2982 2984 2985 2987 2988 2990 2991 2992 2993 2994 2994 2994
2989 2989 2989 2987 2987 2987 2988 2985 2981 2980 2979 2975 2970 2969 2966 2964 2962 2959 2957 2957 2957 2960 2961 2961 2958 2958 2960 2962 2964 2966 2968 2970 2972 2975 2977 2979 2981 2983 2986 2987 2987 2987 2988 2987